Regional Weather Roundup
Issued by NWS State College, PA

Home | Current Version | Previous Version | Graphics & Text | Print | Product List | Glossary Off
Versions: 1 2 3 4 5 6 7 8 9 10 11 12 13 14 15 16 17 18 19 20 21 22 23 24 25 26 27 28 29 30 31 32 33 34 35 36 37 38 39 40 41 42 43 44 45 46 47 48 49 50

395
ASUS41 KCTP 040003
RWRCTP

REGIONAL WEATHER ROUNDUP
NATIONAL WEATHER SERVICE STATE COLLEGE PA
800 PM EDT TUE MAY 03 2016

Note: "fair" indicates few or no clouds below 12,000 feet with no
significant weather and/or obstructions to visibility.

* = STATION THAT DOES NOT REPORT PRECIPITATION /E.G. RAIN...SNOW...ETC/
    THUNDER OR FOG.

PAZ002>004-007>009-013>016-020>023-029>032-040100-
WESTERN PENNSYLVANIA

CITY           SKY/WX    TMP DP  RH WIND       PRES   REMARKS
ERIE           CLEAR     47  40  76 W3        29.83S
MEADVILLE      CLEAR     50  37  61 NW5       29.81S
FRANKLIN*      PTCLDY    54  37  54 NW6       29.82S
NEW CASTLE     CLOUDY    57  40  52 NW7       29.82R
BEAVER COUNTY  CLOUDY    57  41  54 CALM      29.80S
BUTLER*        MOCLDY    57  41  54 CALM      29.82S
PITTSBURGH INT MOCLDY    59  41  51 W8        29.79S
PITTSBURGH     MOCLDY    58  41  53 W6        29.79S
INDIANA*       CLOUDY    59  41  51 NW6       29.83R
LATROBE        MOCLDY    57  50  77 SW6       29.80S
WASHINGTON CO* MOCLDY    57  41  54 W5        29.82R
$$

PAZ004>006-010>012-017>019-024>028-033>037-041-042-045-046-049>053-040100-
CENTRAL PENNSYLVANIA

CITY           SKY/WX    TMP DP  RH WIND       PRES   REMARKS
BRADFORD       CLOUDY    47  43  86 NW8       29.80S
DUBOIS         CLOUDY    55  39  54 N7        29.78R
CLEARFIELD     CLOUDY    60  39  45 W7        29.77R
JOHNSTOWN      CLOUDY    54  42  64 SW7       29.79R
ALTOONA        CLOUDY    59  44  57 W3        29.78R
STATE COLLEGE  CLOUDY    57  50  77 NE5       29.77R
WILLIAMSPORT   PTCLDY    56  48  74 E5        29.78S
SELINSGROVE    CLOUDY    56  50  80 NE6       29.79F
FT INDIANTOWN  MOCLDY    57  56  95 SE3       29.80R
CAPITAL CITY   CLOUDY    61  53  75 E6        29.78R
HARRISBURG     MOCLDY    59  53  80 SE8       29.78R
YORK           LGT RAIN  60  54  80 E5        29.78R
$$

PAZ038>040-043-044-047-048-054-055-060>062-067>071-040100-
EASTERN PENNSYLVANIA

CITY           SKY/WX    TMP DP  RH WIND       PRES   REMARKS
SCRANTON       CLOUDY    51  49  92 CALM      29.80S
MOUNT POCONO   FOG       48  46  93 SE6       29.81R VSB 3/4
ALLENTOWN      CLOUDY    55  51  86 E6        29.81S
QUAKERTOWN*    CLOUDY    55  54  94 CALM      29.82S
READING        CLOUDY    57  52  83 SE3       29.79S
LANCASTER      PTCLDY    56  53  90 E5        29.80R
COATESVILLE    CLOUDY    55 N/A N/A MISG      29.81F
POTTSTOWN      CLOUDY    54  53  97 E3        29.82S
BLUE BELL      CLOUDY    54  52  94 E5        29.81R
DOYLESTOWN     CLOUDY    52  51  97 CALM      29.82R
WILLOW GROVE   NOT AVBL
NORTH PHILA    CLOUDY    56  51  84 E7        29.83F
PHILADELPHIA   CLOUDY    56  50  80 E10       29.82S
$$




USA.gov is the U.S. government's official web portal to all federal, state and local government web resources and services.